FDX55J EGNX-EGKK

Flight info

Callsign FDX55J
Flight time 0h 31m
Altitude 15000
Route SAPCO Y53 DTY DCT WEZKO DCT MID
Aircraft B738/M-SDE2E3FGHIRWXY/LB1

Departure

Time 2026-05-04 18:25
Airport East Midlands Airport (EGNX)

Arrival

Time 2026-05-04 18:57
Airport London Gatwick Airport (EGKK)
Time Latitude Longitude Altitude Speed Heading
2026-05-04 17:53 52.82737 -1.35113 299 ft 0 kts 178°
2026-05-04 18:13 52.82738 -1.35113 299 ft 2 kts 178°
2026-05-04 18:14 52.82764 -1.35116 299 ft 4 kts 173°
2026-05-04 18:14 52.82790 -1.35124 299 ft 4 kts 162°
2026-05-04 18:14 52.82813 -1.35142 302 ft 4 kts 132°
2026-05-04 18:15 52.82821 -1.35166 301 ft 1 kts 88°
2026-05-04 18:17 52.82821 -1.35156 300 ft 2 kts 88°
2026-05-04 18:18 52.82822 -1.35100 302 ft 7 kts 88°
2026-05-04 18:18 52.82825 -1.34990 300 ft 11 kts 88°
2026-05-04 18:18 52.82828 -1.34859 300 ft 11 kts 89°
2026-05-04 18:18 52.82829 -1.34731 300 ft 11 kts 89°
2026-05-04 18:19 52.82836 -1.34477 300 ft 12 kts 75°
2026-05-04 18:19 52.82899 -1.34384 304 ft 12 kts 56°
2026-05-04 18:19 52.82906 -1.34230 300 ft 16 kts 91°
2026-05-04 18:20 52.82909 -1.34029 301 ft 18 kts 88°
2026-05-04 18:20 52.82913 -1.33824 304 ft 18 kts 88°
2026-05-04 18:20 52.82917 -1.33624 306 ft 18 kts 88°
2026-05-04 18:20 52.82920 -1.33423 307 ft 17 kts 87°
2026-05-04 18:21 52.82925 -1.33214 301 ft 20 kts 89°
2026-05-04 18:21 52.82928 -1.32975 301 ft 21 kts 88°
2026-05-04 18:21 52.82932 -1.32732 303 ft 22 kts 88°
2026-05-04 18:21 52.82937 -1.32471 300 ft 23 kts 88°
2026-05-04 18:22 52.82942 -1.32209 300 ft 23 kts 88°
2026-05-04 18:22 52.82947 -1.31939 300 ft 24 kts 88°
2026-05-04 18:22 52.82952 -1.31662 300 ft 24 kts 88°
2026-05-04 18:22 52.82957 -1.31397 301 ft 23 kts 88°
2026-05-04 18:23 52.82962 -1.31141 302 ft 22 kts 89°
2026-05-04 18:23 52.82965 -1.30891 303 ft 21 kts 89°
2026-05-04 18:23 52.83028 -1.30692 302 ft 21 kts 21°
2026-05-04 18:23 52.83133 -1.30742 303 ft 14 kts 289°
2026-05-04 18:24 52.83136 -1.30844 301 ft 0 kts 268°
2026-05-04 18:24 52.83136 -1.30847 300 ft 3 kts 268°
2026-05-04 18:24 52.83127 -1.31359 305 ft 91 kts 269°
2026-05-04 18:25 52.83094 -1.32899 326 ft 172 kts 268°
2026-05-04 18:25 52.83053 -1.35056 1148 ft 193 kts 269°
2026-05-04 18:25 52.83010 -1.37223 2579 ft 189 kts 268°
2026-05-04 18:25 52.82577 -1.39395 3150 ft 218 kts 233°
2026-05-04 18:26 52.81423 -1.41206 3515 ft 237 kts 223°
2026-05-04 18:26 52.80175 -1.43053 4222 ft 243 kts 223°
2026-05-04 18:26 52.78927 -1.44932 5041 ft 244 kts 224°
2026-05-04 18:26 52.77673 -1.46834 5838 ft 245 kts 223°
2026-05-04 18:27 52.76169 -1.48300 6425 ft 263 kts 197°
2026-05-04 18:27 52.74309 -1.48584 7121 ft 275 kts 174°
2026-05-04 18:27 52.72461 -1.47682 8004 ft 280 kts 159°
2026-05-04 18:27 52.70643 -1.46443 8678 ft 283 kts 159°
2026-05-04 18:28 52.68823 -1.45200 9002 ft 286 kts 159°
2026-05-04 18:28 52.66955 -1.43941 9010 ft 292 kts 159°
2026-05-04 18:28 52.65080 -1.42697 9027 ft 290 kts 160°
2026-05-04 18:28 52.63209 -1.41504 9016 ft 287 kts 160°
2026-05-04 18:29 52.61353 -1.40335 9023 ft 285 kts 160°
2026-05-04 18:29 52.59504 -1.39171 9051 ft 287 kts 160°
2026-05-04 18:29 52.57617 -1.37983 9604 ft 293 kts 160°
2026-05-04 18:29 52.55709 -1.36780 10462 ft 297 kts 160°
2026-05-04 18:30 52.51552 -1.34089 10964 ft 347 kts 159°
2026-05-04 18:30 52.49251 -1.32524 11238 ft 367 kts 158°
2026-05-04 18:30 52.46866 -1.30891 11854 ft 375 kts 158°
2026-05-04 18:31 52.44482 -1.29260 12642 ft 377 kts 158°
2026-05-04 18:31 52.42050 -1.27603 13440 ft 380 kts 158°
2026-05-04 18:31 52.39593 -1.25935 14168 ft 384 kts 159°
2026-05-04 18:31 52.37113 -1.24256 14774 ft 387 kts 159°
2026-05-04 18:32 52.34619 -1.22571 15037 ft 390 kts 159°
2026-05-04 18:32 52.32062 -1.20848 15046 ft 406 kts 159°
2026-05-04 18:32 52.29413 -1.19065 15046 ft 413 kts 159°
2026-05-04 18:32 52.26751 -1.17274 15042 ft 414 kts 159°
2026-05-04 18:33 52.24091 -1.15485 15043 ft 414 kts 159°
2026-05-04 18:33 52.21430 -1.13699 15044 ft 413 kts 159°
2026-05-04 18:33 52.18771 -1.11918 15044 ft 413 kts 159°
2026-05-04 18:33 52.16070 -1.10335 15042 ft 412 kts 164°
2026-05-04 18:34 52.13311 -1.09037 15045 ft 412 kts 166°
2026-05-04 18:34 52.10542 -1.07806 15045 ft 413 kts 166°
2026-05-04 18:34 52.07774 -1.06575 15040 ft 413 kts 166°
2026-05-04 18:34 52.05936 -1.05746 15038 ft 413 kts 166°
2026-05-04 18:35 52.03166 -1.04478 15027 ft 413 kts 165°
2026-05-04 18:35 52.00349 -1.03740 15014 ft 411 kts 183°
2026-05-04 18:35 51.97588 -1.04748 15034 ft 408 kts 204°
2026-05-04 18:35 51.95173 -1.07111 15027 ft 406 kts 220°
2026-05-04 18:36 51.93142 -1.10281 15033 ft 406 kts 226°
2026-05-04 18:36 51.91171 -1.13556 15017 ft 406 kts 226°
2026-05-04 18:36 51.89227 -1.16764 15005 ft 392 kts 226°
2026-05-04 18:36 51.87324 -1.19863 14877 ft 385 kts 225°
2026-05-04 18:37 51.85439 -1.22895 14703 ft 381 kts 225°
2026-05-04 18:37 51.83549 -1.25919 14514 ft 377 kts 225°
2026-05-04 18:37 51.81700 -1.28866 14302 ft 376 kts 225°
2026-05-04 18:37 51.79616 -1.31411 14073 ft 378 kts 207°
2026-05-04 18:38 51.77103 -1.32623 13880 ft 379 kts 187°
2026-05-04 18:38 51.74471 -1.32420 13668 ft 381 kts 169°
2026-05-04 18:38 51.71997 -1.30913 13442 ft 383 kts 151°
2026-05-04 18:38 51.69737 -1.28644 13239 ft 383 kts 148°
2026-05-04 18:39 51.67507 -1.26287 13007 ft 382 kts 147°
2026-05-04 18:39 51.65293 -1.23922 12785 ft 382 kts 147°
2026-05-04 18:39 51.63084 -1.21572 12561 ft 380 kts 147°
2026-05-04 18:39 51.60881 -1.19248 12340 ft 378 kts 148°
2026-05-04 18:40 51.58714 -1.16979 12124 ft 376 kts 148°
2026-05-04 18:40 51.56523 -1.14699 11843 ft 375 kts 148°
2026-05-04 18:40 51.54347 -1.12442 11542 ft 374 kts 148°
2026-05-04 18:40 51.52163 -1.10182 11246 ft 373 kts 148°
2026-05-04 18:41 51.49998 -1.07950 11060 ft 367 kts 148°
2026-05-04 18:41 51.47881 -1.05767 11014 ft 355 kts 148°
2026-05-04 18:41 51.45843 -1.03668 11009 ft 344 kts 148°
2026-05-04 18:41 51.43842 -1.01612 11013 ft 339 kts 148°
2026-05-04 18:42 51.41851 -0.99569 11028 ft 341 kts 148°
2026-05-04 18:42 51.39853 -0.97520 11021 ft 341 kts 148°
2026-05-04 18:42 51.37854 -0.95474 11024 ft 341 kts 148°
2026-05-04 18:42 51.35857 -0.93428 11028 ft 341 kts 148°
2026-05-04 18:43 51.33858 -0.91385 11013 ft 341 kts 148°
2026-05-04 18:43 51.31862 -0.89346 11023 ft 340 kts 148°
2026-05-04 18:43 51.29869 -0.87313 11020 ft 341 kts 148°
2026-05-04 18:43 51.27867 -0.85272 11026 ft 341 kts 148°
2026-05-04 18:44 51.25871 -0.83239 11028 ft 341 kts 148°
2026-05-04 18:44 51.24543 -0.81887 11019 ft 341 kts 148°
2026-05-04 18:44 51.21868 -0.79167 11015 ft 341 kts 148°
2026-05-04 18:44 51.19871 -0.77140 11014 ft 340 kts 148°
2026-05-04 18:45 51.17873 -0.75090 10816 ft 341 kts 147°
2026-05-04 18:45 51.15925 -0.72983 10569 ft 335 kts 146°
2026-05-04 18:45 51.14034 -0.70904 10312 ft 325 kts 146°
2026-05-04 18:45 51.12196 -0.68874 10066 ft 317 kts 146°
2026-05-04 18:46 51.10422 -0.66911 9706 ft 314 kts 146°
2026-05-04 18:46 51.08631 -0.64932 9227 ft 314 kts 146°
2026-05-04 18:46 51.06851 -0.62933 8772 ft 312 kts 140°
2026-05-04 18:46 51.05589 -0.60204 8478 ft 307 kts 110°
2026-05-04 18:47 51.05192 -0.56915 8241 ft 300 kts 98°
2026-05-04 18:47 51.04893 -0.53678 8049 ft 292 kts 99°
2026-05-04 18:47 51.04572 -0.50561 7997 ft 280 kts 100°
2026-05-04 18:47 51.04239 -0.47575 7984 ft 270 kts 101°
2026-05-04 18:48 51.03896 -0.44661 7992 ft 267 kts 101°
2026-05-04 18:48 51.03543 -0.41763 8001 ft 268 kts 101°
2026-05-04 18:48 51.03179 -0.38846 7968 ft 270 kts 102°
2026-05-04 18:48 51.02798 -0.35837 7550 ft 283 kts 102°
2026-05-04 18:49 51.02339 -0.32765 7147 ft 288 kts 112°
2026-05-04 18:49 51.01137 -0.30275 6732 ft 288 kts 144°
2026-05-04 18:49 50.99282 -0.29156 6301 ft 290 kts 176°
2026-05-04 18:49 50.97344 -0.29738 5817 ft 284 kts 208°
2026-05-04 18:50 50.95927 -0.31826 5357 ft 278 kts 241°
2026-05-04 18:50 50.95463 -0.34722 4900 ft 272 kts 275°
2026-05-04 18:50 50.96071 -0.37471 4438 ft 265 kts 309°
2026-05-04 18:50 50.97484 -0.39249 4079 ft 255 kts 333°
2026-05-04 18:51 50.99017 -0.40473 3999 ft 238 kts 335°
2026-05-04 18:51 51.00464 -0.41600 3954 ft 229 kts 333°
2026-05-04 18:51 51.01866 -0.42856 3678 ft 234 kts 331°
2026-05-04 18:51 51.03269 -0.44163 3259 ft 232 kts 331°
2026-05-04 18:52 51.04633 -0.45453 3028 ft 228 kts 331°
2026-05-04 18:52 51.06048 -0.46668 2995 ft 230 kts 345°
2026-05-04 18:52 51.07604 -0.46609 2807 ft 227 kts 24°
2026-05-04 18:52 51.08885 -0.45194 2433 ft 225 kts 40°
2026-05-04 18:53 51.10069 -0.43587 2098 ft 218 kts 40°
2026-05-04 18:53 51.11148 -0.42005 2037 ft 208 kts 52°
2026-05-04 18:53 51.11759 -0.39961 1997 ft 201 kts 71°
2026-05-04 18:53 51.12181 -0.37926 1994 ft 186 kts 72°
2026-05-04 18:54 51.12493 -0.36013 1971 ft 169 kts 76°
2026-05-04 18:54 51.12728 -0.34305 1923 ft 151 kts 76°
2026-05-04 18:54 51.12942 -0.32727 1764 ft 144 kts 76°
2026-05-04 18:54 51.13151 -0.31193 1566 ft 142 kts 76°
2026-05-04 18:55 51.13360 -0.29655 1375 ft 142 kts 77°
2026-05-04 18:55 51.13771 -0.26583 943 ft 141 kts 77°
2026-05-04 18:55 51.13963 -0.25065 775 ft 138 kts 76°
2026-05-04 18:56 51.14183 -0.23571 588 ft 140 kts 76°
2026-05-04 18:56 51.14399 -0.22035 398 ft 141 kts 76°
2026-05-04 18:56 51.14605 -0.20538 207 ft 138 kts 76°
2026-05-04 18:56 51.14788 -0.19221 211 ft 88 kts 77°
2026-05-04 18:57 51.14895 -0.18607 205 ft 36 kts 56°
2026-05-04 18:57 51.15004 -0.18387 209 ft 12 kts 51°
2026-05-04 18:57 51.15034 -0.18326 202 ft 0 kts 51°
2026-05-04 18:57 51.15036 -0.18322 202 ft 2 kts 51°
2026-05-04 18:58 51.15064 -0.18266 206 ft 11 kts 51°
2026-05-04 18:58 51.15128 -0.18193 209 ft 9 kts
2026-05-04 18:58 51.15141 -0.18194 201 ft 0 kts 352°
2026-05-04 19:01 51.15142 -0.18195 201 ft 0 kts 353°
2026-05-04 19:01 51.15160 -0.18199 200 ft 7 kts 349°
2026-05-04 19:01 51.15232 -0.18223 200 ft 14 kts 348°
2026-05-04 19:01 51.15346 -0.18263 205 ft 20 kts 347°
2026-05-04 19:02 51.15497 -0.18315 200 ft 25 kts 347°
2026-05-04 19:02 51.15618 -0.18361 200 ft 13 kts 342°
2026-05-04 19:02 51.15702 -0.18393 210 ft 7 kts 347°
2026-05-04 19:02 51.15715 -0.18398 205 ft 1 kts 348°
2026-05-04 19:03 51.15719 -0.18399 203 ft 1 kts 349°